Location: Wolf Creek Estates Observatory
(33.4774°N, 105.6743°W)
Time: 03:29:06
(UTC-06:00)

Envisat - Visible Passes

Search period start: 23 April 2018 00:00
Search period end: 03 May 2018 00:00
Orbit: 764 x 766 km, 98.2° (Epoch: 22 April)

Date Brightness Start Highest point End Pass type
(mag) Time Alt. Az. Time Alt. Az. Time Alt. Az.
23 Apr 3.1 20:10:25 10° SSE 20:15:21 56° ENE 20:20:18 10° N visible
23 Apr 5.7 21:52:18 10° WSW 21:54:38 13° W 21:56:59 10° WNW visible
24 Apr 4.6 21:13:10 10° SSW 21:17:39 32° W 21:22:11 10° NW visible
25 Apr 3.1 20:35:48 10° S 20:40:51 79° WSW 20:45:57 10° NNW visible
26 Apr 3.4 19:59:29 10° SE 20:04:15 43° ENE 20:09:01 10° N visible
26 Apr 5.5 21:40:06 10° SW 21:43:24 17° W 21:46:42 10° NW visible
27 Apr 4.2 21:01:42 10° S 21:06:28 42° W 21:11:16 10° NNW visible
28 Apr 3.0 20:24:40 10° SSE 20:29:44 80° ENE 20:34:48 10° N visible
29 Apr 5.2 21:28:15 10° SSW 21:32:10 22° W 21:36:06 10° NW visible
30 Apr 3.7 20:50:22 10° S 20:55:18 54° W 21:00:16 10° NNW visible
01 May 3.1 20:13:38 10° SSE 20:18:36 62° ENE 20:23:36 10° N visible
01 May 5.8 21:56:13 10° WSW 21:57:57 12° W 21:59:42 10° WNW visible
02 May 4.8 21:16:36 10° SSW 21:20:57 29° W 21:25:20 10° NW visible
